QPF
0.01 0.03 0.04 0.03 0.03 0.02 0.03 0.02 0.01 0.01 0.01 0.00 0.00 0.01 0.01 0.03 0.02 0.01 0.01 0.02 0.02 0.02 0.03 0.04 0.07 0.05 0.07 0.08 0.13 0.15 0.09 0.08 0.07 0.06 0.05 0.04 0.03 0.04 0.06 0.04 0.06 0.09 0.08 0.08 0.11 0.12 0.12 0.09 0.10
0.01 0.03 0.05 0.05 0.02 0.02 0.01 0.02 0.01 0.01 0.01 0.01 0.01 0.01 0.01 0.02 0.02 0.02 0.02 0.02 0.02 0.03 0.03 0.04 0.06 0.05 0.07 0.08 0.09 0.10 0.10 0.11 0.09 0.08 0.06 0.04 0.04 0.05 0.06 0.05 0.07 0.09 0.11 0.12 0.14 0.12 0.12 0.09 0.08
0.02 0.02 0.04 0.04 0.02 0.02 0.02 0.02 0.01 0.01 0.01 0.01 0.01 0.01 0.02 0.04 0.03 0.02 0.02 0.02 0.02 0.03 0.03 0.04 0.06 0.05 0.06 0.08 0.07 0.08 0.10 0.14 0.14 0.10 0.08 0.07 0.06 0.06 0.05 0.06 0.07 0.08 0.10 0.12 0.13 0.11 0.09 0.07 0.07
0.02 0.03 0.03 0.02 0.01 0.02 0.03 0.02 0.01 0.01 0.00 0.00 0.01 0.02 0.04 0.03 0.02 0.02 0.01 0.01 0.01 0.01 0.01 0.03 0.05 0.04 0.05 0.08 0.09 0.07 0.06 0.11 0.18 0.19 0.16 0.11 0.08 0.08 0.08 0.07 0.08 0.09 0.12 0.15 0.13 0.09 0.06 0.06 0.06
0.02 0.03 0.02 0.01 0.01 0.02 0.01 0.01 0.01 0.01 0.01 0.01 0.01 0.02 0.03 0.02 0.02 0.01 0.01 0.01 0.01 0.01 0.01 0.02 0.04 0.04 0.05 0.07 0.10 0.09 0.07 0.10 0.20 0.25 0.22 0.14 0.09 0.08 0.10 0.11 0.11 0.12 0.14 0.11 0.08 0.06 0.06 0.05 0.06
0.02 0.02 0.01 0.01 0.01 0.01 0.01 0.01 0.01 0.01 0.01 0.01 0.01 0.02 0.04 0.06 0.03 0.02 0.02 0.01 0.01 0.01 0.02 0.03 0.04 0.06 0.07 0.06 0.09 0.10 0.09 0.17 0.22 0.18 0.17 0.13 0.11 0.09 0.10 0.10 0.11 0.11 0.10 0.08 0.07 0.08 0.07 0.06 0.06
0.03 0.02 0.01 0.01 0.01 0.01 0.01 0.01 0.01 0.00 0.01 0.02 0.02 0.02 0.07 0.09 0.05 0.03 0.02 0.02 0.02 0.02 0.02 0.02 0.03 0.04 0.07 0.07 0.10 0.13 0.11 0.27 0.26 0.20 0.17 0.15 0.13 0.12 0.10 0.10 0.11 0.12 0.11 0.11 0.10 0.09 0.09 0.08 0.06
0.04 0.03 0.01 0.01 0.01 0.01 0.01 0.00 0.00 0.01 0.01 0.02 0.02 0.06 0.09 0.07 0.04 0.03 0.02 0.02 0.02 0.02 0.02 0.03 0.03 0.03 0.03 0.09 0.14 0.12 0.11 0.18 0.25 0.25 0.18 0.17 0.14 0.12 0.12 0.11 0.10 0.10 0.11 0.10 0.10 0.12 0.12 0.10 0.10
0.03 0.01 0.01 0.01 0.00 0.01 0.00 0.00 0.01 0.02 0.01 0.02 0.02 0.06 0.06 0.05 0.03 0.02 0.02 0.01 0.02 0.01 0.01 0.01 0.02 0.01 0.02 0.05 0.06 0.05 0.07 0.09 0.18 0.21 0.18 0.15 0.11 0.09 0.08 0.09 0.10 0.10 0.10 0.10 0.11 0.12 0.12 0.11 0.13
0.02 0.01 0.01 0.01 0.01 0.00 0.01 0.01 0.02 0.02 0.02 0.03 0.03 0.04 0.05 0.05 0.03 0.02 0.01 0.02 0.02 0.02 0.02 0.01 0.01 0.01 0.02 0.02 0.02 0.04 0.04 0.05 0.07 0.08 0.11 0.09 0.08 0.07 0.06 0.10 0.12 0.13 0.13 0.13 0.13 0.11 0.09 0.10 0.11
0.01 0.00 0.00 0.00 0.01 0.01 0.01 0.02 0.02 0.02 0.04 0.04 0.03 0.03 0.04 0.03 0.03 0.03 0.03 0.03 0.02 0.02 0.03 0.02 0.01 0.01 0.02 0.01 0.01 0.02 0.02 0.02 0.04 0.06 0.06 0.05 0.06 0.06 0.05 0.06 0.07 0.09 0.11 0.12 0.11 0.09 0.06 0.06 0.05
0.01 0.00 0.00 0.00 0.01 0.01 0.02 0.05 0.03 0.02 0.04 0.04 0.03 0.02 0.01 0.01 0.02 0.02 0.02 0.03 0.03 0.02 0.03 0.02 0.01 0.01 0.01 0.01 0.02 0.03 0.02 0.02 0.04 0.06 0.05 0.04 0.04 0.04 0.04 0.03 0.03 0.04 0.05 0.07 0.07 0.08 0.07 0.06 0.04
0.00 0.00 0.00 0.01 0.01 0.01 0.02 0.02 0.02 0.03 0.03 0.02 0.01 0.01 0.01 0.02 0.02 0.02 0.03 0.02 0.02 0.04 0.05 0.03 0.01 0.01 0.01 0.01 0.02 0.03 0.04 0.07 0.07 0.07 0.05 0.03 0.02 0.02 0.04 0.03 0.05 0.05 0.04 0.04 0.06 0.06 0.05 0.06 0.05
0.00 0.00 0.00 0.01 0.01 0.01 0.01 0.02 0.02 0.04 0.03 0.02 0.02 0.02 0.02 0.02 0.03 0.02 0.02 0.01 0.01 0.02 0.03 0.02 0.01 0.02 0.02 0.02 0.02 0.03 0.04 0.06 0.06 0.04 0.03 0.02 0.01 0.02 0.03 0.03 0.03 0.05 0.04 0.04 0.04 0.04 0.04 0.03 0.04
0.00 0.00 0.00 0.01 0.01 0.01 0.02 0.02 0.03 0.03 0.03 0.02 0.02 0.02 0.02 0.01 0.02 0.02 0.01 0.01 0.01 0.01 0.02 0.01 0.01 0.01 0.03 0.03 0.02 0.03 0.03 0.03 0.03 0.02 0.01 0.01 0.01 0.01 0.02 0.01 0.03 0.04 0.05 0.04 0.04 0.04 0.03 0.03 0.03
0.00 0.00 0.01 0.01 0.01 0.02 0.03 0.03 0.03 0.02 0.02 0.01 0.01 0.01 0.01 0.02 0.02 0.01 0.01 0.01 0.01 0.01 0.02 0.01 0.00 0.00 0.01 0.01 0.01 0.02 0.02 0.03 0.03 0.02 0.02 0.02 0.02 0.02 0.02 0.02 0.05 0.07 0.07 0.06 0.04 0.04 0.03 0.03 0.03
0.00 0.00 0.00 0.00 0.01 0.01 0.02 0.02 0.01 0.02 0.01 0.01 0.01 0.01 0.01 0.02 0.02 0.01 0.01 0.01 0.01 0.01 0.01 0.01 0.00 0.00 0.00 0.00 0.01 0.01 0.02 0.02 0.03 0.02 0.03 0.03 0.04 0.04 0.03 0.04 0.05 0.04 0.05 0.07 0.06 0.05 0.04 0.03 0.04
0.00 0.00 0.00 0.00 0.01 0.01 0.01 0.01 0.01 0.01 0.01 0.01 0.01 0.01 0.01 0.01 0.01 0.02 0.01 0.01 0.01 0.00 0.00 0.00 0.00 0.00 0.00 0.01 0.01 0.01 0.01 0.02 0.02 0.02 0.02 0.02 0.02 0.03 0.04 0.04 0.03 0.04 0.05 0.06 0.06 0.04 0.03 0.03 0.03
0.00 0.00 0.00 0.00 0.00 0.01 0.01 0.01 0.01 0.01 0.01 0.01 0.01 0.02 0.02 0.02 0.02 0.02 0.01 0.01 0.00 0.00 0.00 0.00 0.00 0.00 0.00 0.00 0.01 0.01 0.01 0.01 0.02 0.02 0.02 0.01 0.01 0.02 0.02 0.02 0.02 0.03 0.05 0.05 0.06 0.05 0.04 0.03 0.03
0.00 0.00 0.00 0.00 0.00 0.00 0.01 0.01 0.01 0.01 0.01 0.01 0.01 0.01 0.02 0.02 0.01 0.01 0.02 0.01 0.00 0.00 0.00 0.00 0.00 0.00 0.00 0.00 0.00 0.00 0.00 0.01 0.01 0.02 0.02 0.01 0.00 0.01 0.01 0.01 0.01 0.01 0.04 0.06 0.06 0.05 0.05 0.04 0.03
0.00 0.00 0.00 0.00 0.00 0.00 0.00 0.00 0.00 0.01 0.01 0.00 0.01 0.01 0.02 0.01 0.01 0.01 0.01 0.00 0.00 0.00 0.00 0.00 0.00 0.00 0.00 0.00 0.01 0.00 0.00 0.00 0.01 0.01 0.01 0.01 0.00 0.00 0.01 0.01 0.01 0.02 0.02 0.03 0.04 0.03 0.04 0.05 0.04
0.00 0.00 0.00 0.00 0.00 0.00 0.00 0.00 0.00 0.01 0.01 0.00 0.01 0.00 0.01 0.01 0.01 0.01 0.01 0.00 0.00 0.00 0.00 0.00 0.00 0.00 0.01 0.01 0.00 0.00 0.00 0.00 0.00 0.01 0.01 0.01 0.00 0.00 0.01 0.01 0.01 0.02 0.03 0.05 0.05 0.03 0.04 0.06 0.05
0.00 0.00 0.00 0.00 0.00 0.00 0.00 0.00 0.00 0.01 0.01 0.00 0.00 0.00 0.00 0.00 0.00 0.00 0.01 0.01 0.00 0.00 0.00 0.00 0.01 0.00 0.00 0.00 0.00 0.00 0.00 0.00 0.00 0.01 0.01 0.01 0.01 0.01 0.02 0.02 0.02 0.02 0.04 0.05 0.06 0.08 0.07 0.06 0.05
0.00 0.00 0.00 0.00 0.00 0.00 0.00 0.00 0.00 0.00 0.00 0.00 0.00 0.00 0.00 0.00 0.00 0.00 0.01 0.01 0.00 0.00 0.00 0.00 0.00 0.00 0.00 0.00 0.00 0.00 0.01 0.00 0.00 0.01 0.01 0.01 0.01 0.01 0.01 0.01 0.02 0.03 0.04 0.05 0.04 0.07 0.11 0.11 0.11
0.00 0.00 0.00 0.00 0.00 0.00 0.00 0.00 0.00 0.00 0.00 0.00 0.00 0.00 0.00 0.00 0.00 0.00 0.01 0.02 0.00 0.00 0.00 0.00 0.00 0.00 0.00 0.00 0.00 0.00 0.00 0.01 0.01 0.01 0.01 0.01 0.01 0.01 0.01 0.02 0.02 0.02 0.04 0.05 0.05 0.09 0.08 0.07 0.07
0.00 0.00 0.00 0.00 0.00 0.00 0.00 0.00 0.00 0.00 0.00 0.00 0.00 0.00 0.01 0.01 0.01 0.01 0.01 0.02 0.01 0.01 0.00 0.00 0.00 0.00 0.00 0.00 0.00 0.01 0.01 0.02 0.01 0.01 0.01 0.01 0.00 0.00 0.01 0.02 0.02 0.02 0.03 0.04 0.05 0.07 0.06 0.05 0.02
0.00 0.00 0.00 0.00 0.00 0.00 0.00 0.00 0.00 0.00 0.00 0.00 0.00 0.00 0.01 0.01 0.01 0.01 0.01 0.01 0.01 0.01 0.01 0.00 0.00 0.00 0.00 0.01 0.01 0.01 0.01 0.02 0.01 0.01 0.01 0.01 0.01 0.01 0.01 0.02 0.02 0.02 0.03 0.04 0.05 0.06 0.05 0.03 0.02
0.00 0.00 0.00 0.00 0.00 0.00 0.00 0.00 0.00 0.00 0.00 0.00 0.00 0.00 0.00 0.00 0.01 0.01 0.01 0.02 0.03 0.01 0.01 0.02 0.01 0.01 0.00 0.00 0.01 0.01 0.02 0.01 0.02 0.02 0.01 0.01 0.01 0.00 0.01 0.01 0.02 0.03 0.04 0.04 0.04 0.04 0.03 0.02 0.01
0.00 0.00 0.00 0.00 0.00 0.00 0.00 0.00 0.00 0.00 0.00 0.00 0.00 0.00 0.00 0.00 0.00 0.00 0.01 0.02 0.04 0.03 0.01 0.01 0.02 0.02 0.01 0.01 0.02 0.02 0.03 0.03 0.02 0.02 0.01 0.01 0.01 0.01 0.01 0.01 0.01 0.03 0.04 0.03 0.03 0.02 0.02 0.02 0.01
0.00 0.00 0.00 0.00 0.00 0.00 0.00 0.00 0.00 0.00 0.00 0.00 0.00 0.00 0.00 0.00 0.00 0.00 0.00 0.02 0.04 0.03 0.03 0.02 0.03 0.03 0.02 0.03 0.03 0.03 0.04 0.03 0.02 0.02 0.02 0.02 0.02 0.02 0.01 0.01 0.01 0.02 0.03 0.04 0.03 0.02 0.03 0.03 0.02
MSLP
1005.04 1005.98 1007.03 1008.03 1008.82 1009.31 1009.47 1009.34 1009.00 1008.62 1008.33 1008.24 1008.39 1008.77 1009.29 1009.84 1010.30 1010.58 1010.64 1010.52 1010.28 1010.04 1009.88 1009.87 1010.04 1010.34 1010.71 1011.08 1011.37 1011.56 1011.63 1011.64 1011.64 1011.69 1011.83 1012.07 1012.38 1012.72 1013.03 1013.28 1013.43 1013.50 1013.51 1013.50 1013.50 1013.55 1013.65 1013.79 1013.94
1005.40 1006.51 1007.66 1008.67 1009.40 1009.76 1009.74 1009.40 1008.87 1008.32 1007.91 1007.74 1007.86 1008.25 1008.80 1009.39 1009.90 1010.24 1010.38 1010.34 1010.20 1010.05 1009.99 1010.07 1010.31 1010.67 1011.08 1011.46 1011.76 1011.93 1012.00 1012.01 1012.00 1012.05 1012.18 1012.41 1012.70 1013.01 1013.29 1013.49 1013.61 1013.66 1013.65 1013.64 1013.65 1013.71 1013.82 1013.96 1014.11
1005.94 1007.16 1008.35 1009.33 1009.96 1010.17 1009.98 1009.47 1008.79 1008.12 1007.64 1007.43 1007.55 1007.94 1008.51 1009.13 1009.68 1010.05 1010.24 1010.26 1010.19 1010.12 1010.14 1010.29 1010.60 1011.00 1011.44 1011.83 1012.13 1012.31 1012.38 1012.39 1012.39 1012.43 1012.56 1012.76 1013.01 1013.27 1013.50 1013.66 1013.75 1013.78 1013.77 1013.77 1013.80 1013.88 1014.00 1014.14 1014.27
1006.62 1007.89 1009.05 1009.94 1010.45 1010.51 1010.18 1009.54 1008.78 1008.06 1007.56 1007.36 1007.49 1007.90 1008.49 1009.13 1009.68 1010.07 1010.28 1010.34 1010.32 1010.31 1010.38 1010.59 1010.93 1011.35 1011.80 1012.19 1012.49 1012.68 1012.76 1012.77 1012.78 1012.83 1012.94 1013.12 1013.33 1013.55 1013.73 1013.85 1013.91 1013.92 1013.92 1013.93 1013.98 1014.08 1014.20 1014.33 1014.43
1007.37 1008.60 1009.67 1010.44 1010.80 1010.73 1010.29 1009.60 1008.82 1008.13 1007.67 1007.52 1007.69 1008.13 1008.73 1009.36 1009.90 1010.29 1010.51 1010.59 1010.61 1010.64 1010.75 1010.98 1011.33 1011.74 1012.17 1012.56 1012.84 1013.02 1013.11 1013.14 1013.17 1013.22 1013.33 1013.49 1013.68 1013.85 1013.99 1014.08 1014.11 1014.12 1014.13 1014.15 1014.22 1014.32 1014.43 1014.53 1014.59
1008.08 1009.20 1010.13 1010.73 1010.95 1010.78 1010.29 1009.60 1008.87 1008.27 1007.90 1007.84 1008.07 1008.54 1009.14 1009.76 1010.28 1010.66 1010.89 1010.98 1011.03 1011.09 1011.23 1011.46 1011.80 1012.18 1012.57 1012.91 1013.17 1013.33 1013.42 1013.47 1013.52 1013.60 1013.72 1013.87 1014.04 1014.19 1014.30 1014.36 1014.38 1014.38 1014.38 1014.41 1014.47 1014.56 1014.65 1014.71 1014.72
1008.66 1009.61 1010.34 1010.76 1010.84 1010.60 1010.11 1009.49 1008.88 1008.41 1008.18 1008.22 1008.52 1009.02 1009.61 1010.20 1010.71 1011.07 1011.30 1011.43 1011.52 1011.61 1011.77 1012.01 1012.32 1012.66 1012.99 1013.27 1013.47 1013.61 1013.69 1013.75 1013.83 1013.93 1014.08 1014.24 1014.40 1014.54 1014.63 1014.66 1014.66 1014.65 1014.64 1014.66 1014.70 1014.76 1014.81 1014.82 1014.77
1009.02 1009.77 1010.28 1010.53 1010.49 1010.22 1009.77 1009.27 1008.81 1008.51 1008.43 1008.58 1008.94 1009.44 1010.02 1010.58 1011.06 1011.42 1011.67 1011.84 1011.98 1012.13 1012.32 1012.57 1012.85 1013.14 1013.40 1013.61 1013.76 1013.86 1013.93 1014.01 1014.11 1014.24 1014.41 1014.59 1014.75 1014.88 1014.95 1014.96 1014.94 1014.90 1014.87 1014.86 1014.86 1014.88 1014.87 1014.83 1014.73
1009.16 1009.68 1009.99 1010.08 1009.96 1009.68 1009.32 1008.95 1008.67 1008.54 1008.60 1008.85 1009.24 1009.75 1010.28 1010.80 1011.25 1011.62 1011.90 1012.14 1012.35 1012.58 1012.82 1013.08 1013.35 1013.60 1013.80 1013.95 1014.04 1014.11 1014.16 1014.24 1014.36 1014.52 1014.71 1014.90 1015.07 1015.19 1015.24 1015.23 1015.17 1015.10 1015.03 1014.97 1014.93 1014.89 1014.83 1014.73 1014.60
1009.10 1009.42 1009.55 1009.50 1009.33 1009.08 1008.83 1008.62 1008.51 1008.54 1008.72 1009.02 1009.43 1009.90 1010.39 1010.85 1011.27 1011.64 1011.97 1012.28 1012.59 1012.90 1013.21 1013.51 1013.79 1014.01 1014.17 1014.27 1014.33 1014.36 1014.40 1014.48 1014.61 1014.78 1014.99 1015.19 1015.35 1015.45 1015.48 1015.44 1015.35 1015.23 1015.11 1015.00 1014.90 1014.81 1014.70 1014.56 1014.39
1008.95 1009.08 1009.06 1008.92 1008.73 1008.54 1008.40 1008.34 1008.39 1008.55 1008.81 1009.15 1009.53 1009.94 1010.35 1010.75 1011.14 1011.51 1011.89 1012.27 1012.67 1013.07 1013.47 1013.83 1014.13 1014.36 1014.50 1014.58 1014.60 1014.62 1014.65 1014.72 1014.85 1015.03 1015.24 1015.43 1015.58 1015.67 1015.68 1015.61 1015.48 1015.32 1015.15 1014.99 1014.83 1014.68 1014.52 1014.35 1014.17
1008.79 1008.78 1008.65 1008.46 1008.28 1008.16 1008.14 1008.21 1008.39 1008.64 1008.94 1009.27 1009.60 1009.93 1010.26 1010.58 1010.92 1011.29 1011.69 1012.14 1012.62 1013.11 1013.59 1014.01 1014.36 1014.61 1014.77 1014.85 1014.87 1014.88 1014.91 1014.98 1015.11 1015.27 1015.46 1015.64 1015.78 1015.84 1015.83 1015.74 1015.58 1015.39 1015.18 1014.97 1014.77 1014.58 1014.38 1014.19 1013.99
1008.73 1008.62 1008.42 1008.21 1008.06 1008.02 1008.09 1008.27 1008.53 1008.83 1009.14 1009.43 1009.69 1009.93 1010.16 1010.40 1010.69 1011.04 1011.46 1011.95 1012.49 1013.04 1013.58 1014.07 1014.47 1014.76 1014.95 1015.06 1015.11 1015.13 1015.17 1015.24 1015.35 1015.49 1015.66 1015.81 1015.93 1015.98 1015.95 1015.85 1015.69 1015.48 1015.25 1015.01 1014.78 1014.55 1014.33 1014.12 1013.91
1008.83 1008.65 1008.41 1008.21 1008.10 1008.13 1008.27 1008.52 1008.82 1009.13 1009.41 1009.64 1009.82 1009.96 1010.10 1010.27 1010.51 1010.83 1011.25 1011.75 1012.31 1012.90 1013.48 1014.01 1014.46 1014.80 1015.05 1015.21 1015.30 1015.36 1015.41 1015.47 1015.57 1015.69 1015.82 1015.94 1016.03 1016.07 1016.04 1015.95 1015.80 1015.60 1015.37 1015.13 1014.88 1014.64 1014.41 1014.18 1013.97
1009.08 1008.86 1008.62 1008.44 1008.37 1008.44 1008.63 1008.90 1009.20 1009.49 1009.71 1009.87 1009.97 1010.03 1010.09 1010.21 1010.39 1010.69 1011.08 1011.57 1012.13 1012.72 1013.31 1013.87 1014.35 1014.75 1015.06 1015.28 1015.43 1015.53 1015.61 1015.67 1015.75 1015.83 1015.93 1016.02 1016.09 1016.12 1016.11 1016.04 1015.91 1015.74 1015.54 1015.31 1015.07 1014.83 1014.60 1014.38 1014.17
1009.42 1009.19 1008.97 1008.82 1008.79 1008.89 1009.09 1009.35 1009.61 1009.83 1009.97 1010.05 1010.07 1010.07 1010.09 1010.17 1010.33 1010.60 1010.97 1011.43 1011.96 1012.53 1013.11 1013.67 1014.18 1014.63 1015.00 1015.29 1015.51 1015.66 1015.76 1015.84 1015.89 1015.94 1016.00 1016.05 1016.10 1016.14 1016.14 1016.10 1016.02 1015.90 1015.73 1015.53 1015.31 1015.09 1014.86 1014.65 1014.46
1009.78 1009.57 1009.38 1009.28 1009.29 1009.41 1009.59 1009.79 1009.97 1010.09 1010.13 1010.12 1010.07 1010.02 1010.02 1010.09 1010.26 1010.52 1010.88 1011.32 1011.81 1012.34 1012.90 1013.44 1013.97 1014.46 1014.89 1015.26 1015.54 1015.75 1015.89 1015.97 1016.01 1016.02 1016.04 1016.05 1016.09 1016.12 1016.14 1016.14 1016.11 1016.03 1015.91 1015.74 1015.55 1015.35 1015.15 1014.97 1014.80
1010.07 1009.91 1009.79 1009.76 1009.81 1009.92 1010.06 1010.17 1010.23 1010.21 1010.13 1010.02 1009.90 1009.82 1009.83 1009.92 1010.12 1010.41 1010.78 1011.20 1011.66 1012.16 1012.68 1013.21 1013.74 1014.26 1014.76 1015.19 1015.55 1015.82 1015.99 1016.08 1016.11 1016.09 1016.07 1016.05 1016.06 1016.09 1016.13 1016.16 1016.17 1016.13 1016.05 1015.92 1015.76 1015.59 1015.42 1015.27 1015.15
1010.22 1010.16 1010.14 1010.20 1010.30 1010.42 1010.49 1010.49 1010.39 1010.21 1009.97 1009.73 1009.54 1009.45 1009.47 1009.61 1009.86 1010.21 1010.61 1011.04 1011.50 1011.97 1012.46 1012.98 1013.52 1014.07 1014.61 1015.11 1015.54 1015.87 1016.08 1016.19 1016.21 1016.17 1016.11 1016.07 1016.05 1016.07 1016.12 1016.17 1016.20 1016.20 1016.15 1016.05 1015.91 1015.77 1015.64 1015.54 1015.46
1010.22 1010.30 1010.44 1010.61 1010.79 1010.90 1010.90 1010.76 1010.48 1010.10 1009.68 1009.30 1009.02 1008.90 1008.94 1009.14 1009.47 1009.89 1010.35 1010.82 1011.29 1011.76 1012.24 1012.75 1013.29 1013.87 1014.46 1015.02 1015.51 1015.90 1016.16 1016.29 1016.31 1016.26 1016.18 1016.11 1016.08 1016.09 1016.13 1016.19 1016.24 1016.25 1016.21 1016.13 1016.02 1015.90 1015.81 1015.75 1015.74
1010.08 1010.35 1010.68 1011.01 1011.28 1011.39 1011.31 1011.02 1010.54 1009.94 1009.32 1008.78 1008.39 1008.22 1008.27 1008.53 1008.95 1009.46 1010.00 1010.53 1011.03 1011.51 1011.99 1012.50 1013.06 1013.66 1014.28 1014.89 1015.44 1015.88 1016.20 1016.36 1016.41 1016.37 1016.28 1016.20 1016.15 1016.15 1016.19 1016.25 1016.29 1016.31 1016.28 1016.20 1016.10 1016.00 1015.94 1015.93 1015.98
1009.87 1010.36 1010.90 1011.41 1011.78 1011.91 1011.76 1011.32 1010.63 1009.80 1008.96 1008.23 1007.72 1007.49 1007.54 1007.85 1008.35 1008.95 1009.57 1010.17 1010.72 1011.22 1011.71 1012.22 1012.78 1013.40 1014.05 1014.70 1015.30 1015.80 1016.16 1016.38 1016.46 1016.44 1016.37 1016.29 1016.25 1016.25 1016.28 1016.34 1016.39 1016.40 1016.37 1016.29 1016.19 1016.10 1016.06 1016.09 1016.19
1009.63 1010.35 1011.13 1011.82 1012.29 1012.45 1012.23 1011.64 1010.76 1009.71 1008.65 1007.74 1007.10 1006.79 1006.82 1007.16 1007.72 1008.39 1009.09 1009.75 1010.35 1010.88 1011.38 1011.90 1012.46 1013.08 1013.75 1014.43 1015.06 1015.61 1016.03 1016.29 1016.42 1016.45 1016.41 1016.37 1016.34 1016.35 1016.39 1016.45 1016.50 1016.51 1016.48 1016.40 1016.30 1016.22 1016.19 1016.24 1016.38
1009.42 1010.36 1011.34 1012.19 1012.76 1012.94 1012.66 1011.95 1010.90 1009.66 1008.42 1007.34 1006.57 1006.18 1006.19 1006.53 1007.12 1007.85 1008.61 1009.31 1009.94 1010.49 1011.00 1011.51 1012.07 1012.68 1013.36 1014.05 1014.72 1015.30 1015.77 1016.09 1016.28 1016.36 1016.37 1016.37 1016.38 1016.41 1016.48 1016.55 1016.61 1016.62 1016.59 1016.52 1016.42 1016.34 1016.32 1016.38 1016.54
1009.26 1010.38 1011.51 1012.49 1013.13 1013.32 1013.00 1012.19 1011.02 1009.63 1008.25 1007.05 1006.18 1005.72 1005.69 1006.02 1006.62 1007.37 1008.15 1008.88 1009.53 1010.08 1010.59 1011.08 1011.62 1012.23 1012.89 1013.59 1014.27 1014.89 1015.40 1015.77 1016.02 1016.15 1016.23 1016.27 1016.32 1016.39 1016.49 1016.58 1016.66 1016.69 1016.67 1016.61 1016.52 1016.45 1016.43 1016.49 1016.64
1009.14 1010.37 1011.60 1012.64 1013.32 1013.50 1013.15 1012.28 1011.03 1009.57 1008.11 1006.85 1005.92 1005.42 1005.36 1005.67 1006.26 1007.00 1007.77 1008.49 1009.13 1009.67 1010.16 1010.63 1011.15 1011.73 1012.39 1013.08 1013.77 1014.40 1014.94 1015.36 1015.65 1015.84 1015.97 1016.06 1016.16 1016.27 1016.39 1016.52 1016.62 1016.68 1016.69 1016.64 1016.57 1016.50 1016.48 1016.53 1016.68
1009.06 1010.32 1011.57 1012.61 1013.27 1013.43 1013.05 1012.17 1010.91 1009.44 1007.98 1006.72 1005.80 1005.29 1005.21 1005.49 1006.05 1006.75 1007.49 1008.17 1008.77 1009.28 1009.74 1010.20 1010.69 1011.26 1011.89 1012.57 1013.26 1013.90 1014.46 1014.90 1015.23 1015.46 1015.62 1015.75 1015.88 1016.03 1016.19 1016.34 1016.47 1016.56 1016.59 1016.58 1016.53 1016.47 1016.46 1016.50 1016.63
1009.00 1010.21 1011.39 1012.36 1012.97 1013.09 1012.70 1011.84 1010.62 1009.22 1007.84 1006.65 1005.78 1005.30 1005.22 1005.48 1005.99 1006.63 1007.30 1007.92 1008.47 1008.94 1009.37 1009.80 1010.27 1010.82 1011.44 1012.11 1012.79 1013.43 1013.99 1014.44 1014.78 1015.04 1015.22 1015.38 1015.53 1015.70 1015.88 1016.06 1016.22 1016.34 1016.40 1016.41 1016.39 1016.35 1016.34 1016.38 1016.49
1008.96 1010.05 1011.09 1011.93 1012.43 1012.50 1012.11 1011.30 1010.19 1008.93 1007.69 1006.63 1005.86 1005.45 1005.38 1005.62 1006.06 1006.62 1007.20 1007.74 1008.22 1008.64 1009.03 1009.45 1009.91 1010.46 1011.07 1011.73 1012.40 1013.02 1013.58 1014.02 1014.37 1014.62 1014.82 1014.98 1015.15 1015.33 1015.52 1015.71 1015.89 1016.04 1016.13 1016.17 1016.17 1016.15 1016.14 1016.18 1016.27
1008.97 1009.87 1010.73 1011.39 1011.76 1011.76 1011.37 1010.64 1009.67 1008.59 1007.54 1006.66 1006.03 1005.70 1005.66 1005.86 1006.23 1006.69 1007.16 1007.60 1008.00 1008.37 1008.73 1009.13 1009.59 1010.14 1010.75 1011.40 1012.06 1012.67 1013.21 1013.64 1013.97 1014.22 1014.41 1014.58 1014.75 1014.94 1015.14 1015.35 1015.54 1015.70 1015.82 1015.88 1015.90 1015.90 1015.90 1015.93 1016.01
Thickness
5812 5810 5806 5796 5777 5758 5754 5766 5775 5776 5777 5784 5787 5782 5774 5768 5762 5760 5782 5791 5791 5790 5789 5788 5787 5786 5785 5785 5785 5785 5785 5785 5784 5784 5783 5782 5781 5780 5778 5777 5776 5775 5774 5772 5771 5770 5769 5768 5767
5814 5811 5802 5788 5764 5745 5753 5771 5774 5779 5785 5790 5789 5784 5776 5774 5779 5780 5785 5790 5791 5790 5789 5788 5786 5785 5784 5784 5783 5784 5783 5783 5783 5782 5781 5780 5779 5778 5777 5775 5774 5773 5772 5770 5769 5768 5767 5766 5765
5815 5812 5794 5779 5762 5752 5760 5776 5779 5787 5793 5792 5785 5784 5779 5776 5782 5784 5789 5792 5791 5789 5788 5787 5786 5785 5784 5783 5783 5783 5782 5781 5781 5780 5779 5778 5777 5776 5775 5774 5773 5771 5770 5769 5768 5766 5765 5764 5763
5813 5802 5791 5773 5764 5771 5776 5782 5787 5787 5791 5793 5786 5778 5782 5789 5789 5790 5793 5793 5790 5788 5787 5786 5785 5784 5783 5783 5782 5782 5781 5780 5779 5778 5777 5776 5776 5774 5773 5772 5771 5770 5769 5768 5767 5765 5764 5763 5762
5812 5794 5776 5764 5769 5780 5788 5791 5791 5786 5786 5789 5786 5776 5776 5789 5794 5794 5793 5792 5789 5787 5787 5786 5784 5783 5783 5782 5781 5780 5780 5779 5778 5777 5776 5775 5775 5774 5773 5771 5770 5769 5768 5767 5766 5765 5764 5762 5761
5800 5788 5765 5758 5769 5782 5790 5795 5792 5787 5787 5789 5785 5776 5776 5788 5791 5791 5792 5790 5789 5787 5786 5784 5783 5782 5782 5782 5781 5779 5779 5778 5777 5776 5775 5774 5774 5773 5773 5771 5770 5769 5768 5767 5766 5764 5763 5762 5761
5795 5781 5769 5769 5770 5778 5790 5798 5792 5788 5786 5788 5790 5776 5777 5785 5790 5791 5790 5789 5788 5786 5784 5783 5782 5781 5781 5780 5779 5779 5778 5777 5776 5775 5775 5774 5773 5772 5771 5770 5769 5768 5768 5767 5765 5764 5763 5762 5761
5804 5786 5774 5771 5773 5779 5795 5799 5798 5793 5790 5799 5795 5778 5775 5785 5791 5790 5788 5787 5785 5784 5783 5782 5781 5780 5779 5778 5778 5777 5777 5775 5775 5774 5774 5773 5773 5771 5770 5769 5769 5768 5767 5766 5765 5764 5762 5761 5760
5810 5781 5769 5777 5779 5786 5798 5796 5799 5803 5798 5797 5797 5792 5792 5793 5791 5786 5783 5782 5781 5782 5782 5781 5779 5779 5778 5777 5777 5776 5775 5775 5774 5773 5773 5772 5771 5770 5769 5768 5768 5767 5766 5766 5765 5763 5762 5761 5759
5801 5777 5783 5797 5798 5796 5800 5798 5798 5795 5789 5788 5790 5793 5796 5792 5787 5782 5779 5778 5777 5778 5779 5780 5778 5777 5777 5776 5775 5775 5774 5774 5773 5773 5772 5771 5770 5769 5769 5768 5767 5766 5765 5764 5763 5762 5761 5760 5758
5802 5791 5800 5807 5809 5806 5801 5800 5802 5792 5783 5787 5787 5789 5791 5788 5784 5782 5780 5779 5778 5779 5779 5779 5778 5777 5776 5775 5775 5774 5773 5773 5772 5772 5771 5771 5769 5768 5767 5767 5765 5765 5764 5763 5762 5761 5760 5759 5757
5804 5806 5810 5811 5814 5809 5804 5802 5798 5795 5796 5802 5800 5796 5791 5786 5784 5783 5781 5780 5780 5779 5779 5779 5778 5777 5776 5775 5774 5773 5772 5772 5771 5771 5770 5770 5769 5767 5766 5766 5765 5764 5762 5761 5761 5760 5759 5758 5756
5806 5808 5814 5816 5814 5811 5808 5802 5799 5798 5804 5806 5802 5796 5791 5787 5785 5785 5785 5783 5781 5779 5779 5779 5779 5778 5776 5775 5774 5773 5772 5772 5771 5771 5770 5769 5768 5766 5766 5765 5764 5763 5761 5760 5759 5758 5757 5756 5755
5811 5810 5811 5813 5813 5813 5805 5802 5799 5798 5804 5800 5797 5793 5791 5789 5787 5785 5784 5782 5782 5781 5780 5780 5779 5778 5777 5775 5774 5773 5773 5772 5771 5770 5770 5769 5768 5766 5765 5764 5763 5762 5761 5760 5758 5757 5756 5755 5754
5816 5805 5804 5808 5810 5809 5805 5792 5795 5802 5802 5796 5793 5792 5790 5789 5788 5787 5786 5785 5784 5783 5782 5781 5780 5779 5777 5776 5775 5774 5773 5772 5771 5771 5770 5769 5768 5766 5765 5764 5763 5762 5760 5759 5758 5756 5754 5753 5753
5807 5793 5784 5799 5806 5807 5797 5779 5798 5804 5800 5792 5791 5791 5789 5789 5789 5789 5789 5787 5786 5784 5782 5782 5782 5779 5778 5776 5775 5774 5773 5773 5772 5771 5770 5769 5768 5766 5765 5763 5762 5761 5760 5758 5757 5755 5753 5751 5750
5785 5775 5778 5790 5804 5803 5793 5782 5797 5802 5798 5792 5791 5791 5789 5788 5788 5790 5790 5789 5787 5786 5783 5781 5781 5780 5778 5777 5775 5774 5773 5772 5772 5771 5770 5769 5768 5766 5764 5763 5761 5760 5759 5758 5757 5754 5752 5750 5749
5774 5775 5778 5781 5796 5797 5787 5786 5795 5799 5797 5793 5792 5791 5790 5789 5791 5792 5792 5791 5789 5787 5785 5783 5781 5780 5779 5777 5775 5774 5773 5772 5771 5770 5770 5769 5768 5766 5764 5762 5761 5760 5758 5756 5755 5753 5752 5750 5749
5789 5781 5777 5785 5798 5791 5785 5785 5792 5797 5795 5792 5792 5791 5791 5792 5795 5794 5793 5792 5790 5788 5785 5783 5781 5780 5778 5776 5773 5771 5770 5770 5770 5770 5770 5769 5768 5766 5764 5762 5761 5759 5758 5756 5755 5753 5750 5748 5747
5789 5780 5778 5787 5798 5791 5783 5785 5796 5799 5798 5798 5796 5795 5795 5793 5792 5793 5793 5792 5790 5788 5787 5785 5783 5782 5780 5778 5775 5774 5772 5771 5770 5770 5770 5769 5767 5766 5764 5763 5761 5759 5757 5755 5754 5752 5749 5747 5746
5786 5780 5781 5782 5789 5789 5783 5779 5790 5798 5802 5802 5802 5801 5800 5797 5794 5794 5793 5792 5791 5790 5789 5788 5785 5783 5781 5779 5776 5774 5771 5770 5769 5768 5768 5768 5767 5766 5765 5763 5761 5759 5757 5755 5753 5752 5749 5745 5744
5779 5796 5792 5785 5773 5763 5773 5754 5780 5791 5793 5798 5801 5802 5802 5802 5799 5797 5796 5794 5793 5793 5792 5790 5787 5785 5782 5780 5776 5772 5768 5766 5766 5767 5767 5768 5767 5766 5765 5763 5761 5759 5757 5755 5754 5752 5749 5746 5742
5792 5802 5792 5783 5771 5760 5766 5755 5768 5786 5786 5795 5802 5804 5805 5805 5804 5801 5800 5799 5798 5796 5793 5791 5788 5785 5783 5781 5777 5774 5770 5769 5768 5767 5767 5766 5767 5766 5765 5763 5761 5759 5757 5755 5754 5752 5749 5747 5744
5802 5791 5779 5767 5757 5746 5760 5754 5760 5778 5790 5799 5805 5807 5808 5808 5807 5805 5804 5801 5798 5797 5794 5792 5788 5785 5784 5781 5779 5775 5772 5770 5767 5765 5765 5764 5764 5765 5764 5763 5761 5759 5757 5755 5753 5751 5749 5747 5744
5793 5766 5742 5740 5731 5738 5759 5756 5765 5795 5803 5806 5807 5808 5809 5810 5807 5804 5802 5800 5799 5797 5795 5792 5788 5785 5784 5782 5780 5777 5775 5772 5769 5766 5765 5763 5762 5763 5763 5762 5761 5759 5757 5756 5753 5751 5749 5746 5744
5782 5770 5743 5732 5728 5738 5755 5753 5779 5805 5811 5813 5812 5811 5810 5808 5807 5806 5805 5803 5801 5799 5796 5794 5790 5787 5785 5782 5780 5778 5776 5773 5771 5768 5767 5764 5763 5763 5763 5762 5761 5759 5758 5756 5753 5751 5748 5746 5743
5777 5768 5771 5746 5739 5736 5744 5761 5785 5805 5806 5808 5808 5807 5806 5806 5807 5806 5806 5804 5802 5800 5798 5795 5791 5788 5786 5784 5781 5779 5776 5774 5772 5770 5768 5766 5765 5764 5763 5761 5760 5758 5757 5755 5752 5749 5747 5745 5742
5791 5774 5753 5741 5727 5727 5743 5753 5764 5789 5795 5801 5802 5803 5804 5805 5805 5805 5804 5804 5802 5801 5799 5796 5793 5790 5787 5784 5782 5780 5777 5775 5773 5770 5767 5766 5765 5763 5761 5760 5758 5756 5755 5753 5750 5747 5746 5743 5741
5777 5768 5753 5739 5739 5727 5728 5749 5789 5793 5798 5799 5802 5804 5804 5804 5803 5802 5802 5802 5801 5800 5798 5794 5791 5788 5785 5783 5781 5779 5777 5775 5773 5770 5768 5766 5764 5762 5760 5758 5755 5753 5752 5750 5748 5745 5743 5741 5739
5787 5773 5758 5746 5738 5732 5731 5751 5802 5801 5802 5801 5802 5803 5804 5803 5803 5802 5800 5799 5797 5796 5794 5792 5789 5786 5784 5783 5780 5778 5776 5773 5771 5769 5767 5765 5762 5760 5758 5755 5753 5751 5750 5748 5746 5743 5742 5739 5736